Location: L�Ave Maria
(50.7161°N, 1.5911°E)
Time: 00:03:42
(UTC+00:00)

Cosmos 1633 - Pass Details

Date: 10 July 2020
Orbit: 462 x 482 km, 82.5° (Epoch: 03 August)

Event Time Altitude Azimuth Distance (km) Brightness Sun altitude
Exits shadow 23:47:48 34° 220° (SW) 809 3.3 -17.2°
Maximum altitude 23:49:07 57° 283° (WNW) 570 2.9 -17.2°
Drops below altitude 10° 23:52:41 10° 3° (N) 1,658 6.6 -17.2°
Sets 23:54:49 0° 7° (N) 2,538 7.9 -17.2°
